JTA9 RJBB-ROAH

Flight info

Callsign JTA9
Flight time 2h 14m
Altitude 34000
Route OBLUR Y236 MULAB Y75 ONC Y525 IHEYA
Aircraft B738/M-SDGIJ1LRWY/SB1

Departure

Time 2026-04-25 12:24
Airport Kansai International Airport (RJBB)

Arrival

Time 2026-04-25 14:38
Airport Naha International Airport (ROAH)
Time Latitude Longitude Altitude Speed Heading
2026-04-25 10:39 34.43188 135.24010 8 ft 0 kts 141°
2026-04-25 11:48 34.43193 135.24005 8 ft 2 kts 141°
2026-04-25 11:48 34.43205 135.23994 8 ft 2 kts 141°
2026-04-25 11:48 34.43216 135.23982 8 ft 2 kts 141°
2026-04-25 11:48 34.43228 135.23972 8 ft 2 kts 141°
2026-04-25 11:49 34.43240 135.23959 8 ft 2 kts 156°
2026-04-25 11:49 34.43255 135.23956 8 ft 2 kts 190°
2026-04-25 11:49 34.43269 135.23964 8 ft 2 kts 223°
2026-04-25 11:49 34.43278 135.23979 8 ft 2 kts 233°
2026-04-25 11:50 34.43282 135.23985 8 ft 0 kts 228°
2026-04-25 11:53 34.43270 135.23969 8 ft 6 kts 230°
2026-04-25 11:53 34.43221 135.23895 8 ft 15 kts 236°
2026-04-25 11:53 34.43205 135.23755 8 ft 19 kts 265°
2026-04-25 11:53 34.43133 135.23625 8 ft 18 kts 230°
2026-04-25 11:54 34.43048 135.23503 8 ft 21 kts 229°
2026-04-25 11:54 34.42944 135.23355 8 ft 18 kts 230°
2026-04-25 11:54 34.43022 135.23158 8 ft 20 kts 320°
2026-04-25 11:55 34.43153 135.23032 8 ft 28 kts 321°
2026-04-25 11:55 34.43309 135.22878 8 ft 29 kts 321°
2026-04-25 11:55 34.43474 135.22717 8 ft 29 kts 321°
2026-04-25 11:55 34.43630 135.22563 8 ft 27 kts 321°
2026-04-25 11:56 34.43765 135.22432 8 ft 18 kts 321°
2026-04-25 11:56 34.43779 135.22340 8 ft 12 kts 233°
2026-04-25 11:56 34.43718 135.22249 8 ft 16 kts 231°
2026-04-25 11:56 34.43649 135.22145 8 ft 13 kts 231°
2026-04-25 11:57 34.43595 135.22066 8 ft 11 kts 231°
2026-04-25 11:57 34.43545 135.21991 8 ft 11 kts 231°
2026-04-25 11:57 34.43498 135.21921 8 ft 10 kts 231°
2026-04-25 11:57 34.43451 135.21851 8 ft 10 kts 231°
2026-04-25 11:58 34.43405 135.21782 8 ft 10 kts 231°
2026-04-25 11:58 34.43356 135.21709 8 ft 10 kts 230°
2026-04-25 11:58 34.43327 135.21666 8 ft 1 kts 231°
2026-04-25 11:58 34.43326 135.21664 8 ft 0 kts 231°
2026-04-25 12:00 34.43278 135.21593 8 ft 12 kts 231°
2026-04-25 12:01 34.43224 135.21512 8 ft 12 kts 231°
2026-04-25 12:01 34.43173 135.21436 8 ft 11 kts 230°
2026-04-25 12:01 34.43127 135.21368 8 ft 8 kts 231°
2026-04-25 12:01 34.43110 135.21344 8 ft 0 kts 231°
2026-04-25 12:04 34.43102 135.21330 8 ft 5 kts 231°
2026-04-25 12:05 34.43060 135.21269 8 ft 9 kts 231°
2026-04-25 12:05 34.43019 135.21208 8 ft 7 kts 231°
2026-04-25 12:05 34.43003 135.21184 8 ft 0 kts 231°
2026-04-25 12:06 34.43003 135.21182 8 ft 0 kts 231°
2026-04-25 12:07 34.42990 135.21164 8 ft 4 kts 231°
2026-04-25 12:07 34.42977 135.21146 8 ft 0 kts 231°
2026-04-25 12:07 34.42972 135.21138 8 ft 5 kts 231°
2026-04-25 12:08 34.42941 135.21091 8 ft 6 kts 231°
2026-04-25 12:08 34.42931 135.21075 8 ft 0 kts 231°
2026-04-25 12:09 34.42924 135.21065 8 ft 6 kts 231°
2026-04-25 12:10 34.42885 135.21008 8 ft 7 kts 231°
2026-04-25 12:10 34.42874 135.20993 8 ft 0 kts 231°
2026-04-25 12:12 34.42867 135.20981 8 ft 5 kts 230°
2026-04-25 12:12 34.42832 135.20931 8 ft 7 kts 231°
2026-04-25 12:13 34.42823 135.20917 8 ft 0 kts 231°
2026-04-25 12:17 34.42823 135.20915 8 ft 1 kts 231°
2026-04-25 12:17 34.42801 135.20883 8 ft 7 kts 231°
2026-04-25 12:17 34.42775 135.20845 8 ft 1 kts 231°
2026-04-25 12:18 34.42774 135.20844 8 ft 0 kts 231°
2026-04-25 12:20 34.42757 135.20816 8 ft 11 kts 237°
2026-04-25 12:20 34.42765 135.20735 8 ft 6 kts 317°
2026-04-25 12:20 34.42774 135.20726 8 ft 0 kts 319°
2026-04-25 12:22 34.42778 135.20721 8 ft 4 kts 319°
2026-04-25 12:22 34.42823 135.20676 8 ft 8 kts 320°
2026-04-25 12:22 34.42865 135.20639 8 ft 3 kts 357°
2026-04-25 12:23 34.42875 135.20648 8 ft 0 kts 51°
2026-04-25 12:23 34.42935 135.20740 8 ft 43 kts 51°
2026-04-25 12:23 34.43274 135.21242 8 ft 109 kts 51°
2026-04-25 12:24 34.43876 135.22139 9 ft 163 kts 51°
2026-04-25 12:24 34.44630 135.23251 511 ft 173 kts 52°
2026-04-25 12:24 34.45469 135.24268 1268 ft 173 kts 35°
2026-04-25 12:24 34.46610 135.24678 2018 ft 177 kts
2026-04-25 12:25 34.47900 135.24448 2524 ft 198 kts 344°
2026-04-25 12:25 34.49123 135.23587 3030 ft 218 kts 317°
2026-04-25 12:25 34.49886 135.21927 3579 ft 235 kts 279°
2026-04-25 12:25 34.49767 135.19914 4141 ft 249 kts 251°
2026-04-25 12:26 34.49139 135.17925 4837 ft 260 kts 245°
2026-04-25 12:26 34.48419 135.15887 5528 ft 271 kts 246°
2026-04-25 12:26 34.47683 135.13739 6335 ft 279 kts 246°
2026-04-25 12:26 34.46957 135.11548 7166 ft 284 kts 247°
2026-04-25 12:27 34.46232 135.09332 8062 ft 286 kts 248°
2026-04-25 12:27 34.45501 135.07109 8929 ft 289 kts 246°
2026-04-25 12:27 34.44553 135.04956 9774 ft 291 kts 238°
2026-04-25 12:27 34.43409 135.02922 10568 ft 296 kts 235°
2026-04-25 12:28 34.42222 135.00890 11377 ft 299 kts 236°
2026-04-25 12:28 34.41045 134.98796 12191 ft 301 kts 238°
2026-04-25 12:28 34.39904 134.96681 12980 ft 303 kts 239°
2026-04-25 12:28 34.38761 134.94525 13784 ft 305 kts 239°
2026-04-25 12:29 34.37638 134.92397 14620 ft 303 kts 239°
2026-04-25 12:29 34.36505 134.90254 15429 ft 301 kts 239°
2026-04-25 12:29 34.35382 134.88132 16162 ft 302 kts 238°
2026-04-25 12:29 34.34243 134.85983 16877 ft 303 kts 238°
2026-04-25 12:30 34.33098 134.83827 17568 ft 305 kts 238°
2026-04-25 12:30 34.31965 134.81694 18235 ft 306 kts 238°
2026-04-25 12:30 34.30801 134.79503 18910 ft 308 kts 238°
2026-04-25 12:30 34.29651 134.77339 19622 ft 307 kts 238°
2026-04-25 12:31 34.28499 134.75176 20243 ft 308 kts 239°
2026-04-25 12:31 34.27342 134.73007 20895 ft 309 kts 239°
2026-04-25 12:31 34.26173 134.70815 21510 ft 310 kts 239°
2026-04-25 12:31 34.25011 134.68633 22127 ft 310 kts 239°
2026-04-25 12:32 34.23842 134.66440 22743 ft 310 kts 239°
2026-04-25 12:32 34.22675 134.64250 23319 ft 311 kts 239°
2026-04-25 12:32 34.21500 134.62051 23823 ft 313 kts 239°
2026-04-25 12:32 34.20319 134.59842 24410 ft 311 kts 240°
2026-04-25 12:33 34.19152 134.57663 25038 ft 308 kts 239°
2026-04-25 12:33 34.17937 134.55541 25635 ft 306 kts 232°
2026-04-25 12:33 34.16197 134.54004 26120 ft 318 kts 213°
2026-04-25 12:33 34.14070 134.53125 26683 ft 323 kts 205°
2026-04-25 12:34 34.11869 134.52493 27077 ft 328 kts 203°
2026-04-25 12:34 34.09623 134.51924 27463 ft 330 kts 202°
2026-04-25 12:34 34.07396 134.51387 27983 ft 327 kts 202°
2026-04-25 12:34 34.05886 134.51038 28269 ft 327 kts 203°
2026-04-25 12:35 34.02904 134.50398 28993 ft 322 kts 203°
2026-04-25 12:35 34.00689 134.49933 29202 ft 324 kts 205°
2026-04-25 12:35 33.98600 134.49089 29619 ft 309 kts 216°
2026-04-25 12:35 33.96797 134.47739 29990 ft 297 kts 227°
2026-04-25 12:36 33.95386 134.45967 30314 ft 291 kts 237°
2026-04-25 12:36 33.94317 134.43909 30572 ft 292 kts 244°
2026-04-25 12:36 33.93485 134.41687 30877 ft 294 kts 246°
2026-04-25 12:36 33.92644 134.39471 31320 ft 291 kts 245°
2026-04-25 12:37 33.91636 134.37309 31547 ft 295 kts 240°
2026-04-25 12:37 33.90478 134.35274 31789 ft 298 kts 237°
2026-04-25 12:37 33.89201 134.33298 32154 ft 299 kts 234°
2026-04-25 12:37 33.87887 134.31377 32504 ft 300 kts 234°
2026-04-25 12:38 33.86534 134.29439 32793 ft 302 kts 234°
2026-04-25 12:38 33.85166 134.27495 33106 ft 304 kts 234°
2026-04-25 12:38 33.83803 134.25565 33517 ft 303 kts 234°
2026-04-25 12:38 33.82446 134.23645 33835 ft 304 kts 233°
2026-04-25 12:39 33.81057 134.21686 34117 ft 306 kts 233°
2026-04-25 12:39 33.78251 134.17738 34155 ft 310 kts 233°
2026-04-25 12:40 33.75463 134.13812 34153 ft 309 kts 233°
2026-04-25 12:40 33.72665 134.09865 34152 ft 309 kts 233°
2026-04-25 12:41 33.69852 134.05920 34147 ft 310 kts 234°
2026-04-25 12:41 33.67035 134.01988 34145 ft 312 kts 233°
2026-04-25 12:42 33.64222 133.98039 34140 ft 311 kts 234°
2026-04-25 12:42 33.61412 133.94107 34144 ft 309 kts 233°
2026-04-25 12:43 33.58590 133.90175 34144 ft 311 kts 232°
2026-04-25 12:43 33.54396 133.84312 34142 ft 309 kts 233°
2026-04-25 12:44 33.51577 133.80383 34135 ft 311 kts 233°
2026-04-25 12:45 33.47335 133.74466 34129 ft 311 kts 232°
2026-04-25 12:45 33.43089 133.68581 34130 ft 311 kts 233°
2026-04-25 12:46 33.40251 133.64638 34126 ft 312 kts 232°
2026-04-25 12:46 33.37430 133.60719 34124 ft 313 kts 233°
2026-04-25 12:47 33.34557 133.56737 34122 ft 315 kts 232°
2026-04-25 12:47 33.31688 133.52777 34121 ft 314 kts 233°
2026-04-25 12:48 33.28852 133.48820 34125 ft 313 kts 233°
2026-04-25 12:48 33.25977 133.44873 34124 ft 315 kts 232°
2026-04-25 12:49 33.23126 133.40936 34123 ft 312 kts 233°
2026-04-25 12:49 33.20272 133.37001 34118 ft 314 kts 233°
2026-04-25 12:50 33.17417 133.33079 34117 ft 314 kts 232°
2026-04-25 12:50 33.14538 133.29123 34117 ft 315 kts 232°
2026-04-25 12:51 33.11664 133.25172 34122 ft 313 kts 232°
2026-04-25 12:51 33.08786 133.21228 34130 ft 317 kts 233°
2026-04-25 12:52 33.05881 133.17248 34128 ft 316 kts 232°
2026-04-25 12:52 33.02995 133.13300 34131 ft 315 kts 232°
2026-04-25 12:53 33.00112 133.09361 34132 ft 317 kts 233°
2026-04-25 12:53 32.97229 133.05426 34130 ft 316 kts 233°
2026-04-25 12:54 32.94320 133.01453 34129 ft 316 kts 232°
2026-04-25 12:54 32.91429 132.97519 34129 ft 317 kts 233°
2026-04-25 12:55 32.89003 132.94229 34131 ft 315 kts 232°
2026-04-25 12:55 32.85629 132.89636 34127 ft 315 kts 233°
2026-04-25 12:56 32.82738 132.85709 34127 ft 316 kts 232°
2026-04-25 12:56 32.79847 132.81789 34124 ft 317 kts 232°
2026-04-25 12:57 32.76922 132.77832 34123 ft 318 kts 232°
2026-04-25 12:57 32.74011 132.73875 34118 ft 317 kts 232°
2026-04-25 12:58 32.71115 132.69940 34114 ft 317 kts 233°
2026-04-25 12:58 32.68190 132.65991 34118 ft 317 kts 232°
2026-04-25 12:59 32.65268 132.62056 34112 ft 316 kts 232°
2026-04-25 12:59 32.62360 132.58141 34112 ft 318 kts 233°
2026-04-25 13:00 32.59925 132.54866 34110 ft 316 kts 232°
2026-04-25 13:00 32.56518 132.50282 34107 ft 319 kts 232°
2026-04-25 13:01 32.53592 132.46350 34107 ft 316 kts 232°
2026-04-25 13:01 32.50688 132.42450 34044 ft 314 kts 232°
2026-04-25 13:02 32.49248 132.40518 33763 ft 310 kts 232°
2026-04-25 13:02 32.47834 132.38625 33486 ft 310 kts 233°
2026-04-25 13:02 32.46384 132.36678 33214 ft 314 kts 232°
2026-04-25 13:02 32.44946 132.34752 32955 ft 314 kts 232°
2026-04-25 13:03 32.43491 132.32806 32692 ft 312 kts 231°
2026-04-25 13:03 32.42222 132.31110 32460 ft 309 kts 232°
2026-04-25 13:03 32.40791 132.29199 32202 ft 308 kts 232°
2026-04-25 13:03 32.39389 132.27331 31944 ft 307 kts 232°
2026-04-25 13:04 32.37973 132.25438 31684 ft 307 kts 232°
2026-04-25 13:04 32.36548 132.23534 31421 ft 306 kts 232°
2026-04-25 13:04 32.35149 132.21664 31170 ft 304 kts 231°
2026-04-25 13:04 32.33749 132.19797 30917 ft 302 kts 232°
2026-04-25 13:05 32.32365 132.17950 30656 ft 299 kts 232°
2026-04-25 13:05 32.30971 132.16097 30390 ft 299 kts 232°
2026-04-25 13:05 32.29677 132.14372 30155 ft 298 kts 232°
2026-04-25 13:05 32.28304 132.12547 30089 ft 294 kts 232°
2026-04-25 13:06 32.26940 132.10728 30094 ft 296 kts 231°
2026-04-25 13:06 32.25563 132.08896 30095 ft 299 kts 231°
2026-04-25 13:06 32.24191 132.07068 30096 ft 299 kts 232°
2026-04-25 13:06 32.22803 132.05226 30100 ft 297 kts 231°
2026-04-25 13:07 32.21430 132.03404 30093 ft 296 kts 232°
2026-04-25 13:07 32.20052 132.01575 30094 ft 297 kts 231°
2026-04-25 13:07 32.18679 131.99756 30094 ft 298 kts 231°
2026-04-25 13:07 32.17305 131.97935 30092 ft 298 kts 232°
2026-04-25 13:08 32.15916 131.96095 30094 ft 298 kts 232°
2026-04-25 13:08 32.14543 131.94278 30094 ft 297 kts 231°
2026-04-25 13:08 32.13179 131.92474 30088 ft 296 kts 232°
2026-04-25 13:08 32.11795 131.90646 30094 ft 295 kts 232°
2026-04-25 13:09 32.10426 131.88838 30090 ft 295 kts 231°
2026-04-25 13:09 32.09060 131.87032 30091 ft 294 kts 231°
2026-04-25 13:09 32.07701 131.85228 30094 ft 295 kts 231°
2026-04-25 13:09 32.06331 131.83411 30091 ft 297 kts 231°
2026-04-25 13:10 32.04968 131.81607 30092 ft 295 kts 231°
2026-04-25 13:10 32.03609 131.79813 30089 ft 296 kts 231°
2026-04-25 13:10 32.02216 131.77977 30093 ft 297 kts 231°
2026-04-25 13:10 32.00843 131.76170 30092 ft 295 kts 232°
2026-04-25 13:11 31.99467 131.74359 29871 ft 298 kts 231°
2026-04-25 13:11 31.98087 131.72545 29614 ft 295 kts 232°
2026-04-25 13:11 31.96718 131.70760 29354 ft 293 kts 231°
2026-04-25 13:11 31.95266 131.69075 29107 ft 292 kts 226°
2026-04-25 13:12 31.93618 131.67644 28872 ft 295 kts 220°
2026-04-25 13:12 31.91847 131.66389 28637 ft 299 kts 217°
2026-04-25 13:12 31.90048 131.65183 28403 ft 301 kts 218°
2026-04-25 13:12 31.88813 131.64351 28244 ft 303 kts 218°
2026-04-25 13:13 31.86401 131.62698 28083 ft 299 kts 218°
2026-04-25 13:13 31.84605 131.61453 28086 ft 298 kts 218°
2026-04-25 13:13 31.82822 131.60214 28088 ft 300 kts 217°
2026-04-25 13:13 31.81013 131.58955 28087 ft 301 kts 217°
2026-04-25 13:14 31.79217 131.57707 28085 ft 300 kts 218°
2026-04-25 13:14 31.77423 131.56459 28085 ft 300 kts 218°
2026-04-25 13:14 31.73790 131.53929 28085 ft 302 kts 217°
2026-04-25 13:15 31.71993 131.52683 28084 ft 300 kts 217°
2026-04-25 13:15 31.70183 131.51425 28081 ft 301 kts 218°
2026-04-25 13:15 31.66561 131.48904 28077 ft 302 kts 217°
2026-04-25 13:16 31.62930 131.46385 28076 ft 303 kts 218°
2026-04-25 13:16 31.59300 131.43870 28076 ft 303 kts 217°
2026-04-25 13:17 31.55678 131.41365 28074 ft 303 kts 218°
2026-04-25 13:17 31.52029 131.38841 28072 ft 304 kts 217°
2026-04-25 13:18 31.48396 131.36333 28068 ft 302 kts 218°
2026-04-25 13:18 31.44747 131.33809 28065 ft 305 kts 217°
2026-04-25 13:19 31.41111 131.31302 28065 ft 302 kts 217°
2026-04-25 13:19 31.38077 131.29204 28065 ft 304 kts 217°
2026-04-25 13:20 31.33829 131.26285 28067 ft 303 kts 217°
2026-04-25 13:20 31.30181 131.23773 28065 ft 305 kts 218°
2026-04-25 13:21 31.26509 131.21249 28069 ft 303 kts 217°
2026-04-25 13:21 31.22836 131.18730 28065 ft 307 kts 218°
2026-04-25 13:22 31.19163 131.16214 28066 ft 305 kts 217°
2026-04-25 13:23 31.13654 131.12434 28063 ft 304 kts 217°
2026-04-25 13:23 31.09985 131.09921 28057 ft 307 kts 218°
2026-04-25 13:24 31.06291 131.07396 28054 ft 307 kts 217°
2026-04-25 13:24 31.02589 131.04868 28058 ft 305 kts 217°
2026-04-25 13:25 30.98932 131.02364 28053 ft 306 kts 218°
2026-04-25 13:25 30.95213 130.99828 28048 ft 308 kts 218°
2026-04-25 13:26 30.91511 130.97310 28049 ft 306 kts 217°
2026-04-25 13:26 30.87808 130.94788 28045 ft 309 kts 218°
2026-04-25 13:27 30.84091 130.92259 28049 ft 307 kts 217°
2026-04-25 13:27 30.80395 130.89743 28048 ft 307 kts 217°
2026-04-25 13:28 30.76702 130.87234 28050 ft 307 kts 217°
2026-04-25 13:28 30.73002 130.84726 28046 ft 309 kts 217°
2026-04-25 13:29 30.69270 130.82198 28045 ft 307 kts 217°
2026-04-25 13:29 30.65571 130.79694 28048 ft 308 kts 217°
2026-04-25 13:30 30.60030 130.75946 28038 ft 308 kts 217°
2026-04-25 13:31 30.54465 130.72188 28037 ft 307 kts 217°
2026-04-25 13:31 30.50730 130.69664 28035 ft 310 kts 217°
2026-04-25 13:32 30.47031 130.67177 28036 ft 307 kts 217°
2026-04-25 13:32 30.43294 130.64659 28030 ft 307 kts 216°
2026-04-25 13:33 30.39599 130.62170 28036 ft 310 kts 217°
2026-04-25 13:33 30.35877 130.59670 28038 ft 304 kts 217°
2026-04-25 13:34 30.32186 130.57190 28043 ft 307 kts 217°
2026-04-25 13:34 30.28463 130.54689 28038 ft 307 kts 216°
2026-04-25 13:35 30.24727 130.52188 28039 ft 309 kts 216°
2026-04-25 13:35 30.21008 130.49698 28041 ft 308 kts 217°
2026-04-25 13:36 30.17291 130.47212 28043 ft 309 kts 217°
2026-04-25 13:36 30.13582 130.44736 28032 ft 307 kts 217°
2026-04-25 13:37 30.09897 130.42278 28025 ft 306 kts 217°
2026-04-25 13:37 30.06182 130.39804 28026 ft 308 kts 217°
2026-04-25 13:38 30.02471 130.37326 28023 ft 307 kts 216°
2026-04-25 13:38 29.98744 130.34847 28019 ft 306 kts 216°
2026-04-25 13:39 29.95026 130.32378 28020 ft 310 kts 216°
2026-04-25 13:39 29.91310 130.29913 28015 ft 307 kts 216°
2026-04-25 13:40 29.87570 130.27429 28014 ft 309 kts 216°
2026-04-25 13:40 29.83847 130.24962 28013 ft 308 kts 216°
2026-04-25 13:41 29.80096 130.22478 28011 ft 309 kts 216°
2026-04-25 13:41 29.76388 130.20023 28012 ft 310 kts 216°
2026-04-25 13:42 29.72647 130.17546 28010 ft 309 kts 216°
2026-04-25 13:42 29.68889 130.15067 28010 ft 309 kts 216°
2026-04-25 13:43 29.65157 130.12604 28009 ft 310 kts 216°
2026-04-25 13:43 29.61403 130.10130 28008 ft 309 kts 216°
2026-04-25 13:44 29.57667 130.07669 28003 ft 309 kts 216°
2026-04-25 13:44 29.53930 130.05211 28000 ft 310 kts 216°
2026-04-25 13:44 29.52056 130.03978 27998 ft 309 kts 216°
2026-04-25 13:45 29.50181 130.02747 27997 ft 312 kts 216°
2026-04-25 13:45 29.48297 130.01509 27999 ft 311 kts 216°
2026-04-25 13:45 29.46428 130.00282 27997 ft 309 kts 216°
2026-04-25 13:45 29.44535 129.99037 27997 ft 312 kts 216°
2026-04-25 13:46 29.42659 129.97806 27993 ft 309 kts 216°
2026-04-25 13:46 29.40798 129.96585 27996 ft 310 kts 216°
2026-04-25 13:46 29.38917 129.95354 27994 ft 310 kts 216°
2026-04-25 13:46 29.37061 129.94138 27996 ft 310 kts 216°
2026-04-25 13:47 29.35152 129.92886 27995 ft 312 kts 216°
2026-04-25 13:47 29.33280 129.91661 27995 ft 310 kts 216°
2026-04-25 13:47 29.31419 129.90439 27993 ft 309 kts 216°
2026-04-25 13:47 29.29572 129.89189 27998 ft 310 kts 218°
2026-04-25 13:48 29.27724 129.87875 27994 ft 309 kts 217°
2026-04-25 13:48 29.25845 129.86655 27990 ft 310 kts 216°
2026-04-25 13:48 29.23938 129.85460 27993 ft 312 kts 215°
2026-04-25 13:48 29.22031 129.84258 27989 ft 313 kts 216°
2026-04-25 13:49 29.20131 129.83046 27991 ft 311 kts 216°
2026-04-25 13:49 29.18238 129.81825 27989 ft 311 kts 216°
2026-04-25 13:49 29.16368 129.80612 27989 ft 313 kts 216°
2026-04-25 13:49 29.14465 129.79376 27989 ft 311 kts 216°
2026-04-25 13:50 29.12584 129.78152 27990 ft 311 kts 216°
2026-04-25 13:50 29.10701 129.76926 27991 ft 312 kts 216°
2026-04-25 13:50 29.08792 129.75679 27988 ft 311 kts 216°
2026-04-25 13:50 29.06917 129.74460 27988 ft 310 kts 216°
2026-04-25 13:51 29.05032 129.73231 27991 ft 313 kts 216°
2026-04-25 13:51 29.03151 129.72009 27989 ft 312 kts 216°
2026-04-25 13:51 29.01258 129.70779 27985 ft 311 kts 216°
2026-04-25 13:51 28.99383 129.69560 27985 ft 312 kts 216°
2026-04-25 13:52 28.97473 129.68321 27990 ft 313 kts 216°
2026-04-25 13:52 28.95593 129.67096 27989 ft 311 kts 216°
2026-04-25 13:52 28.93699 129.65865 27987 ft 312 kts 216°
2026-04-25 13:52 28.91813 129.64644 27985 ft 312 kts 216°
2026-04-25 13:53 28.89926 129.63423 27985 ft 313 kts 215°
2026-04-25 13:53 28.88015 129.62187 27984 ft 312 kts 216°
2026-04-25 13:53 28.86135 129.60971 27988 ft 312 kts 216°
2026-04-25 13:53 28.84234 129.59741 27989 ft 312 kts 216°
2026-04-25 13:54 28.82344 129.58521 27991 ft 311 kts 216°
2026-04-25 13:54 28.80463 129.57304 27992 ft 313 kts 215°
2026-04-25 13:54 28.78547 129.56064 27992 ft 312 kts 215°
2026-04-25 13:54 28.76662 129.54846 27993 ft 311 kts 216°
2026-04-25 13:55 28.74778 129.53630 27998 ft 314 kts 215°
2026-04-25 13:55 28.72890 129.52408 27995 ft 311 kts 216°
2026-04-25 13:55 28.70994 129.51184 27993 ft 311 kts 216°
2026-04-25 13:56 28.67221 129.48749 27993 ft 313 kts 216°
2026-04-25 13:56 28.65320 129.47525 27997 ft 311 kts 216°
2026-04-25 13:56 28.63412 129.46295 27997 ft 313 kts 215°
2026-04-25 13:56 28.61522 129.45079 28000 ft 312 kts 215°
2026-04-25 13:57 28.59637 129.43864 27998 ft 311 kts 216°
2026-04-25 13:57 28.58375 129.43051 28000 ft 312 kts 215°
2026-04-25 13:57 28.55857 129.41434 27997 ft 310 kts 215°
2026-04-25 13:57 28.53981 129.40227 28000 ft 311 kts 216°
2026-04-25 13:58 28.52086 129.39009 28002 ft 311 kts 215°
2026-04-25 13:58 28.50209 129.37804 28000 ft 312 kts 216°
2026-04-25 13:58 28.48295 129.36574 27998 ft 312 kts 216°
2026-04-25 13:59 28.44503 129.34137 28005 ft 314 kts 216°
2026-04-25 13:59 28.40686 129.31691 28003 ft 312 kts 215°
2026-04-25 14:00 28.36875 129.29253 28005 ft 313 kts 215°
2026-04-25 14:00 28.33091 129.26828 28004 ft 314 kts 215°
2026-04-25 14:01 28.29295 129.24400 28004 ft 312 kts 215°
2026-04-25 14:01 28.25486 129.21964 28005 ft 316 kts 216°
2026-04-25 14:02 28.21677 129.19533 28007 ft 310 kts 216°
2026-04-25 14:02 28.17895 129.17122 28004 ft 310 kts 215°
2026-04-25 14:03 28.14120 129.14712 28007 ft 314 kts 215°
2026-04-25 14:03 28.10300 129.12277 28008 ft 312 kts 215°
2026-04-25 14:04 28.06534 129.09883 28007 ft 312 kts 216°
2026-04-25 14:04 28.02739 129.07472 28003 ft 311 kts 215°
2026-04-25 14:05 27.98955 129.05066 28008 ft 314 kts 216°
2026-04-25 14:05 27.95144 129.02644 28007 ft 312 kts 215°
2026-04-25 14:06 27.91307 129.00209 28009 ft 316 kts 215°
2026-04-25 14:06 27.87468 128.97775 28011 ft 314 kts 215°
2026-04-25 14:07 27.83661 128.95364 28013 ft 313 kts 215°
2026-04-25 14:07 27.79850 128.92953 28011 ft 314 kts 214°
2026-04-25 14:08 27.76019 128.90532 28011 ft 313 kts 214°
2026-04-25 14:08 27.72207 128.88123 28010 ft 316 kts 214°
2026-04-25 14:09 27.68364 128.85698 28009 ft 317 kts 214°
2026-04-25 14:09 27.64497 128.83258 28008 ft 316 kts 214°
2026-04-25 14:10 27.60678 128.80852 28011 ft 316 kts 214°
2026-04-25 14:10 27.56819 128.78422 28011 ft 316 kts 214°
2026-04-25 14:11 27.52983 128.76004 28015 ft 318 kts 214°
2026-04-25 14:11 27.49113 128.73575 28017 ft 318 kts 214°
2026-04-25 14:12 27.45284 128.71126 28018 ft 316 kts 217°
2026-04-25 14:12 27.42148 128.67743 28020 ft 311 kts 236°
2026-04-25 14:13 27.39896 128.63592 28016 ft 312 kts 239°
2026-04-25 14:13 27.37713 128.59363 28014 ft 312 kts 239°
2026-04-25 14:14 27.35523 128.55167 28015 ft 313 kts 239°
2026-04-25 14:14 27.33306 128.50952 28010 ft 312 kts 239°
2026-04-25 14:15 27.31069 128.46706 28012 ft 315 kts 238°
2026-04-25 14:15 27.28841 128.42485 28010 ft 313 kts 239°
2026-04-25 14:16 27.26572 128.38194 27984 ft 333 kts 238°
2026-04-25 14:16 27.25365 128.35921 27737 ft 338 kts 239°
2026-04-25 14:16 27.24183 128.33687 27323 ft 335 kts 238°
2026-04-25 14:16 27.22997 128.31445 26817 ft 332 kts 238°
2026-04-25 14:17 27.21814 128.29210 26295 ft 330 kts 238°
2026-04-25 14:17 27.20658 128.27031 25788 ft 328 kts 238°
2026-04-25 14:17 27.19497 128.24840 25273 ft 326 kts 238°
2026-04-25 14:17 27.18330 128.22638 24759 ft 324 kts 238°
2026-04-25 14:18 27.17191 128.20489 24254 ft 322 kts 238°
2026-04-25 14:18 27.16053 128.18346 23756 ft 320 kts 238°
2026-04-25 14:18 27.14907 128.16190 23248 ft 319 kts 238°
2026-04-25 14:18 27.13777 128.14062 22748 ft 317 kts 238°
2026-04-25 14:19 27.12662 128.11966 22265 ft 316 kts 238°
2026-04-25 14:19 27.11531 128.09837 21999 ft 312 kts 238°
2026-04-25 14:19 27.10415 128.07739 22005 ft 317 kts 238°
2026-04-25 14:19 27.09283 128.05612 22009 ft 321 kts 238°
2026-04-25 14:20 27.08134 128.03455 22010 ft 320 kts 238°
2026-04-25 14:20 27.07371 128.02022 22006 ft 319 kts 238°
2026-04-25 14:20 27.05837 127.99147 22008 ft 323 kts 238°
2026-04-25 14:20 27.04684 127.97011 22006 ft 322 kts 237°
2026-04-25 14:21 27.03377 127.94958 22008 ft 321 kts 229°
2026-04-25 14:21 27.01739 127.93278 22008 ft 322 kts 217°
2026-04-25 14:21 26.99778 127.92009 22009 ft 325 kts 208°
2026-04-25 14:21 26.97665 127.91056 22006 ft 326 kts 202°
2026-04-25 14:22 26.95450 127.90461 21806 ft 330 kts 192°
2026-04-25 14:22 26.93143 127.90330 21396 ft 331 kts 186°
2026-04-25 14:22 26.90826 127.90404 20931 ft 331 kts 184°
2026-04-25 14:22 26.88529 127.90533 20466 ft 329 kts 184°
2026-04-25 14:23 26.86240 127.90655 19998 ft 328 kts 184°
2026-04-25 14:23 26.83979 127.90755 19538 ft 327 kts 184°
2026-04-25 14:23 26.81694 127.90837 19075 ft 325 kts 185°
2026-04-25 14:23 26.79436 127.90909 18633 ft 323 kts 185°
2026-04-25 14:24 26.77199 127.90977 18215 ft 321 kts 185°
2026-04-25 14:24 26.74939 127.91040 17723 ft 327 kts 185°
2026-04-25 14:24 26.72673 127.91108 17266 ft 327 kts 185°
2026-04-25 14:24 26.70370 127.91179 16802 ft 326 kts 185°
2026-04-25 14:25 26.68121 127.91251 16350 ft 324 kts 185°
2026-04-25 14:25 26.65864 127.91322 15898 ft 323 kts 185°
2026-04-25 14:25 26.63596 127.91392 15446 ft 322 kts 184°
2026-04-25 14:25 26.62103 127.91437 15149 ft 322 kts 184°
2026-04-25 14:26 26.59119 127.91522 14548 ft 320 kts 184°
2026-04-25 14:26 26.56874 127.91585 14093 ft 320 kts 184°
2026-04-25 14:26 26.54654 127.91647 13667 ft 318 kts 184°
2026-04-25 14:26 26.52441 127.91707 13236 ft 317 kts 184°
2026-04-25 14:27 26.50235 127.91765 12797 ft 316 kts 184°
2026-04-25 14:27 26.48035 127.91824 12356 ft 315 kts 184°
2026-04-25 14:27 26.45862 127.91885 11909 ft 311 kts 184°
2026-04-25 14:27 26.43710 127.91952 11488 ft 303 kts 183°
2026-04-25 14:28 26.41632 127.92023 11237 ft 291 kts 182°
2026-04-25 14:28 26.39667 127.92015 11099 ft 274 kts 190°
2026-04-25 14:28 26.37852 127.91561 10783 ft 263 kts 206°
2026-04-25 14:28 26.36184 127.90706 10142 ft 268 kts 211°
2026-04-25 14:29 26.34505 127.89742 9580 ft 270 kts 211°
2026-04-25 14:29 26.32829 127.88821 9098 ft 270 kts 209°
2026-04-25 14:29 26.31135 127.87932 8654 ft 267 kts 208°
2026-04-25 14:29 26.29445 127.87067 8201 ft 266 kts 208°
2026-04-25 14:30 26.27772 127.86213 7771 ft 263 kts 208°
2026-04-25 14:30 26.24453 127.84520 6876 ft 260 kts 207°
2026-04-25 14:30 26.22821 127.83688 6447 ft 258 kts 207°
2026-04-25 14:31 26.21198 127.82860 6022 ft 256 kts 207°
2026-04-25 14:31 26.19580 127.82035 5555 ft 256 kts 206°
2026-04-25 14:31 26.17951 127.81201 5097 ft 255 kts 206°
2026-04-25 14:31 26.16331 127.80370 4633 ft 255 kts 206°
2026-04-25 14:32 26.14724 127.79551 4226 ft 252 kts 206°
2026-04-25 14:32 26.13130 127.78740 3813 ft 250 kts 206°
2026-04-25 14:32 26.11547 127.77935 3254 ft 255 kts 206°
2026-04-25 14:32 26.09926 127.77109 2782 ft 253 kts 205°
2026-04-25 14:33 26.08324 127.76295 2280 ft 253 kts 205°
2026-04-25 14:33 26.06771 127.75444 2155 ft 237 kts 211°
2026-04-25 14:33 26.05557 127.74322 2073 ft 222 kts 235°
2026-04-25 14:33 26.05041 127.72805 2063 ft 202 kts 264°
2026-04-25 14:34 26.05006 127.71318 2063 ft 189 kts 270°
2026-04-25 14:34 26.04961 127.69843 2062 ft 189 kts 268°
2026-04-25 14:34 26.04896 127.68372 2062 ft 190 kts 269°
2026-04-25 14:34 26.05110 127.66936 2056 ft 185 kts 296°
2026-04-25 14:35 26.05916 127.65919 2069 ft 172 kts 326°
2026-04-25 14:35 26.06963 127.65334 2073 ft 166 kts 343°
2026-04-25 14:35 26.08107 127.65108 1973 ft 167 kts 357°
2026-04-25 14:35 26.09258 127.65040 1756 ft 164 kts 358°
2026-04-25 14:36 26.10367 127.64972 1548 ft 154 kts 358°
2026-04-25 14:36 26.11416 127.64922 1335 ft 145 kts 359°
2026-04-25 14:36 26.12420 127.64881 1150 ft 145 kts 358°
2026-04-25 14:36 26.13436 127.64827 956 ft 145 kts 358°
2026-04-25 14:37 26.14434 127.64785 769 ft 144 kts 359°
2026-04-25 14:37 26.15446 127.64733 579 ft 145 kts 358°
2026-04-25 14:37 26.16471 127.64689 379 ft 145 kts 359°
2026-04-25 14:37 26.17488 127.64674 207 ft 148 kts 360°
2026-04-25 14:38 26.18518 127.64638 24 ft 148 kts 358°
2026-04-25 14:38 26.19459 127.64593 11 ft 107 kts 358°
2026-04-25 14:38 26.19985 127.64569 11 ft 48 kts 358°
2026-04-25 14:38 26.20266 127.64611 11 ft 31 kts 24°
2026-04-25 14:39 26.20394 127.64677 11 ft 15 kts 27°
2026-04-25 14:39 26.20484 127.64731 11 ft 14 kts 28°
2026-04-25 14:39 26.20578 127.64749 11 ft 13 kts 11°
2026-04-25 14:39 26.20631 127.64826 11 ft 13 kts 82°
2026-04-25 14:40 26.20624 127.64889 11 ft 5 kts 146°
2026-04-25 14:40 26.20589 127.64909 11 ft 5 kts 148°
2026-04-25 14:40 26.20561 127.64928 11 ft 1 kts 147°
2026-04-25 14:40 26.20556 127.64932 11 ft 0 kts 146°